Time,TemperatureF,DewpointF,PressureIn,WindDirection,WindDirectionDegrees,WindSpeedMPH,WindSpeedGustMPH,Humidity,HourlyPrecipIn,Conditions,Clouds,dailyrainin,SolarRadiationWatts/m^2,SoftwareType,DateUTC
2013-01-20 00:04:00,67.0,65.0,-100.00,NNW,336,2.0,-999.0,93,0.00,,,-99.99,0.000000,,2013-01-20 05:04:00,
2013-01-20 00:12:00,67.0,65.0,-100.00,NNW,342,1.0,-999.0,94,0.00,,,-99.99,0.000000,,2013-01-20 05:12:00,
2013-01-20 00:22:00,67.0,65.0,-100.00,NNW,342,1.0,-999.0,94,0.00,,,-99.99,0.000000,,2013-01-20 05:22:00,
2013-01-20 00:32:00,67.0,65.0,-100.00,NW,323,2.0,-999.0,94,0.00,,,-99.99,0.000000,,2013-01-20 05:32:00,
2013-01-20 00:42:00,66.0,65.0,-100.00,NNW,333,2.0,-999.0,94,0.00,,,-99.99,0.000000,,2013-01-20 05:42:00,
2013-01-20 00:53:00,66.0,65.0,-100.00,NNW,333,2.0,-999.0,94,0.00,,,-99.99,0.000000,,2013-01-20 05:53:00,
2013-01-20 01:02:00,66.0,64.0,-100.00,North,354,3.0,-999.0,94,0.00,,,-99.99,0.000000,,2013-01-20 06:02:00,
2013-01-20 01:12:00,66.0,64.0,-100.00,NNE,21,3.0,-999.0,94,0.00,,,-99.99,0.000000,,2013-01-20 06:12:00,
2013-01-20 01:22:00,66.0,64.0,-100.00,NNE,21,3.0,-999.0,94,0.00,,,-99.99,0.000000,,2013-01-20 06:22:00,
2013-01-20 01:33:00,66.0,64.0,-100.00,NNE,30,2.0,-999.0,94,0.00,,,-99.99,0.000000,,2013-01-20 06:33:00,
2013-01-20 01:43:00,65.0,64.0,-100.00,NNW,340,2.0,-999.0,95,0.00,,,-99.99,0.000000,,2013-01-20 06:43:00,
2013-01-20 01:53:00,65.0,64.0,-100.00,NNW,340,2.0,-999.0,95,0.00,,,-99.99,0.000000,,2013-01-20 06:53:00,
2013-01-20 02:02:00,65.0,64.0,-100.00,North,6,2.0,-999.0,95,0.00,,,-99.99,0.000000,,2013-01-20 07:02:00,
2013-01-20 02:12:00,65.0,64.0,-100.00,NNE,31,2.0,-999.0,95,0.00,,,-99.99,0.000000,,2013-01-20 07:12:00,
2013-01-20 02:22:00,65.0,64.0,-100.00,NNE,31,2.0,-999.0,95,0.00,,,-99.99,0.000000,,2013-01-20 07:22:00,
2013-01-20 02:32:00,65.0,64.0,-100.00,ENE,63,2.0,-999.0,95,0.00,,,-99.99,0.000000,,2013-01-20 07:32:00,
2013-01-20 02:42:00,65.0,64.0,-100.00,NNE,24,1.0,-999.0,95,0.00,,,-99.99,0.000000,,2013-01-20 07:42:00,
2013-01-20 02:52:00,65.0,64.0,-100.00,NNE,24,1.0,-999.0,95,0.00,,,-99.99,0.000000,,2013-01-20 07:52:00,
2013-01-20 03:02:00,65.0,64.0,-100.00,NNE,24,1.0,-999.0,95,0.00,,,-99.99,0.000000,,2013-01-20 08:02:00,
2013-01-20 03:12:00,65.0,64.0,-100.00,North,350,2.0,-999.0,95,0.00,,,-99.99,0.000000,,2013-01-20 08:12:00,
2013-01-20 03:22:00,65.0,64.0,-100.00,North,350,2.0,-999.0,95,0.00,,,-99.99,0.000000,,2013-01-20 08:22:00,
2013-01-20 03:32:00,65.0,64.0,-100.00,NW,326,1.0,-999.0,95,0.00,,,-99.99,0.000000,,2013-01-20 08:32:00,
2013-01-20 03:42:00,64.0,63.0,-100.00,North,0,1.0,-999.0,94,0.00,,,-99.99,0.000000,,2013-01-20 08:42:00,
2013-01-20 03:53:00,64.0,63.0,-100.00,North,0,1.0,-999.0,94,0.00,,,-99.99,0.000000,,2013-01-20 08:53:00,
2013-01-20 04:02:00,65.0,64.0,-100.00,NE,38,1.0,-999.0,95,0.00,,,-99.99,0.000000,,2013-01-20 09:02:00,
2013-01-20 04:12:00,65.0,64.0,-100.00,NNE,25,2.0,-999.0,95,0.00,,,-99.99,0.100000,,2013-01-20 09:12:00,
2013-01-20 04:22:00,65.0,64.0,-100.00,NNE,25,2.0,-999.0,95,0.00,,,-99.99,0.100000,,2013-01-20 09:22:00,
2013-01-20 04:33:00,65.0,64.0,-100.00,North,1,2.0,-999.0,95,0.00,,,-99.99,0.100000,,2013-01-20 09:33:00,
2013-01-20 04:42:00,65.0,63.0,-100.00,North,7,3.0,-999.0,95,0.00,,,-99.99,0.100000,,2013-01-20 09:42:00,
2013-01-20 04:53:00,65.0,63.0,-100.00,North,7,3.0,-999.0,95,0.00,,,-99.99,0.100000,,2013-01-20 09:53:00,
2013-01-20 05:02:00,64.0,63.0,-100.00,NNE,22,2.0,-999.0,96,0.00,,,-99.99,0.200000,,2013-01-20 10:02:00,
2013-01-20 05:12:00,64.0,63.0,-100.00,ENE,76,1.0,-999.0,96,0.00,,,-99.99,0.300000,,2013-01-20 10:12:00,
2013-01-20 05:22:00,64.0,63.0,-100.00,ENE,76,1.0,-999.0,96,0.00,,,-99.99,0.300000,,2013-01-20 10:22:00,
2013-01-20 05:32:00,64.0,63.0,-100.00,ESE,111,1.0,-999.0,96,0.00,,,-99.99,0.200000,,2013-01-20 10:32:00,
2013-01-20 05:42:00,64.0,63.0,-100.00,West,272,1.0,-999.0,96,0.00,,,-99.99,0.300000,,2013-01-20 10:42:00,
2013-01-20 05:52:00,64.0,63.0,-100.00,West,272,1.0,-999.0,96,0.00,,,-99.99,0.300000,,2013-01-20 10:52:00,
2013-01-20 06:02:00,65.0,63.0,-100.00,West,277,4.0,-999.0,96,0.00,,,-99.99,0.200000,,2013-01-20 11:02:00,
2013-01-20 06:12:00,65.0,64.0,-100.00,WNW,285,5.0,-999.0,96,0.00,,,-99.99,0.300000,,2013-01-20 11:12:00,
2013-01-20 06:22:00,65.0,64.0,-100.00,WNW,285,5.0,-999.0,96,0.00,,,-99.99,0.300000,,2013-01-20 11:22:00,
2013-01-20 06:33:00,65.0,64.0,-100.00,WNW,299,6.0,-999.0,96,0.00,,,-99.99,0.300000,,2013-01-20 11:33:00,
2013-01-20 06:43:00,65.0,64.0,-100.00,NW,305,5.0,-999.0,96,0.00,,,-99.99,0.300000,,2013-01-20 11:43:00,
2013-01-20 06:54:00,65.0,64.0,-100.00,NW,305,5.0,-999.0,96,0.00,,,-99.99,0.300000,,2013-01-20 11:54:00,
2013-01-20 07:03:00,65.0,64.0,-100.00,NW,315,5.0,-999.0,96,0.00,,,-99.99,0.300000,,2013-01-20 12:03:00,
2013-01-20 07:12:00,65.0,64.0,-100.00,NNW,334,3.0,-999.0,96,0.00,,,-99.99,0.500000,,2013-01-20 12:12:00,
2013-01-20 07:23:00,65.0,64.0,-100.00,NNW,334,3.0,-999.0,96,0.00,,,-99.99,0.500000,,2013-01-20 12:23:00,
2013-01-20 07:33:00,65.0,64.0,-100.00,NNW,336,2.0,-999.0,96,0.00,,,-99.99,2.700000,,2013-01-20 12:33:00,
2013-01-20 07:43:00,65.0,64.0,-100.00,North,2,2.0,-999.0,96,0.00,,,-99.99,14.800000,,2013-01-20 12:43:00,
2013-01-20 07:53:00,65.0,64.0,-100.00,North,2,2.0,-999.0,96,0.00,,,-99.99,14.800000,,2013-01-20 12:53:00,
2013-01-20 08:03:00,65.0,64.0,-100.00,NE,36,2.0,-999.0,96,0.00,,,-99.99,27.600000,,2013-01-20 13:03:00,
2013-01-20 08:12:00,65.0,65.0,-100.00,NW,319,3.0,-999.0,96,0.00,,,-99.99,50.400002,,2013-01-20 13:12:00,
2013-01-20 08:23:00,65.0,65.0,-100.00,NW,319,3.0,-999.0,96,0.00,,,-99.99,50.400002,,2013-01-20 13:23:00,
2013-01-20 08:33:00,66.0,65.0,-100.00,NNW,339,3.0,-999.0,96,0.00,,,-99.99,88.400002,,2013-01-20 13:33:00,
2013-01-20 08:43:00,66.0,65.0,-100.00,NNW,328,3.0,-999.0,96,0.00,,,-99.99,97.900002,,2013-01-20 13:43:00,
2013-01-20 08:53:00,66.0,65.0,-100.00,NNW,328,3.0,-999.0,96,0.00,,,-99.99,97.900002,,2013-01-20 13:53:00,
2013-01-20 09:02:00,66.0,65.0,-100.00,NW,326,2.0,-999.0,96,0.00,,,-99.99,115.800003,,2013-01-20 14:02:00,
2013-01-20 09:12:00,66.0,65.0,-100.00,NNE,28,2.0,-999.0,96,0.00,,,-99.99,232.899994,,2013-01-20 14:12:00,
2013-01-20 09:23:00,66.0,65.0,-100.00,NNE,28,2.0,-999.0,96,0.00,,,-99.99,232.899994,,2013-01-20 14:23:00,
2013-01-20 09:33:00,67.0,66.0,-100.00,NNE,18,2.0,-999.0,96,0.00,,,-99.99,292.899994,,2013-01-20 14:33:00,
2013-01-20 09:43:00,68.0,66.0,-100.00,NE,38,2.0,-999.0,96,0.00,,,-99.99,363.399994,,2013-01-20 14:43:00,
2013-01-20 09:53:00,68.0,66.0,-100.00,NE,38,2.0,-999.0,96,0.00,,,-99.99,363.399994,,2013-01-20 14:53:00,
2013-01-20 10:03:00,69.0,68.0,-100.00,North,6,2.0,-999.0,95,0.00,,,-99.99,430.600006,,2013-01-20 15:03:00,
2013-01-20 10:12:00,69.0,68.0,-100.00,NNW,335,3.0,-999.0,95,0.00,,,-99.99,474.000000,,2013-01-20 15:12:00,
2013-01-20 10:23:00,69.0,68.0,-100.00,NNW,335,3.0,-999.0,95,0.00,,,-99.99,474.000000,,2013-01-20 15:23:00,
2013-01-20 10:33:00,70.0,69.0,-100.00,NNW,345,3.0,-999.0,94,0.00,,,-99.99,513.200012,,2013-01-20 15:33:00,
2013-01-20 10:42:00,71.0,69.0,-100.00,North,11,4.0,-999.0,93,0.00,,,-99.99,556.200012,,2013-01-20 15:42:00,
2013-01-20 10:53:00,71.0,69.0,-100.00,North,11,4.0,-999.0,93,0.00,,,-99.99,556.200012,,2013-01-20 15:53:00,
2013-01-20 11:03:00,72.0,69.0,-100.00,North,356,3.0,-999.0,90,0.00,,,-99.99,582.200012,,2013-01-20 16:03:00,
2013-01-20 11:12:00,74.0,70.0,-100.00,NW,315,5.0,-999.0,88,0.00,,,-99.99,609.700012,,2013-01-20 16:12:00,
2013-01-20 11:23:00,74.0,70.0,-100.00,NW,315,5.0,-999.0,88,0.00,,,-99.99,609.700012,,2013-01-20 16:23:00,
2013-01-20 11:33:00,75.0,70.0,-100.00,NW,319,3.0,-999.0,84,0.00,,,-99.99,634.000000,,2013-01-20 16:33:00,
2013-01-20 11:43:00,76.0,68.0,-100.00,NW,307,3.0,-999.0,78,0.00,,,-99.99,655.799988,,2013-01-20 16:43:00,
2013-01-20 11:53:00,76.0,68.0,-100.00,NW,307,3.0,-999.0,78,0.00,,,-99.99,655.799988,,2013-01-20 16:53:00,
2013-01-20 12:03:00,77.0,67.0,-100.00,North,7,3.0,-999.0,73,0.00,,,-99.99,674.099976,,2013-01-20 17:03:00,
2013-01-20 12:13:00,77.0,67.0,-100.00,NW,320,2.0,-999.0,70,0.00,,,-99.99,689.000000,,2013-01-20 17:13:00,
2013-01-20 12:22:00,77.0,67.0,-100.00,NW,320,2.0,-999.0,70,0.00,,,-99.99,689.000000,,2013-01-20 17:22:00,
2013-01-20 12:33:00,78.0,67.0,-100.00,NNW,344,4.0,-999.0,68,0.00,,,-99.99,697.500000,,2013-01-20 17:33:00,
2013-01-20 12:42:00,78.0,66.0,-100.00,NW,321,4.0,-999.0,66,0.00,,,-99.99,695.700012,,2013-01-20 17:42:00,
2013-01-20 12:53:00,78.0,66.0,-100.00,NW,321,4.0,-999.0,66,0.00,,,-99.99,695.700012,,2013-01-20 17:53:00,
2013-01-20 13:03:00,79.0,66.0,-100.00,West,279,3.0,-999.0,65,0.00,,,-99.99,687.599976,,2013-01-20 18:03:00,
2013-01-20 13:13:00,80.0,66.0,-100.00,WNW,300,3.0,-999.0,63,0.00,,,-99.99,704.000000,,2013-01-20 18:13:00,
2013-01-20 13:23:00,80.0,66.0,-100.00,WNW,300,3.0,-999.0,63,0.00,,,-99.99,704.000000,,2013-01-20 18:23:00,
2013-01-20 13:33:00,80.0,66.0,-100.00,NW,324,3.0,-999.0,61,0.00,,,-99.99,705.000000,,2013-01-20 18:33:00,
2013-01-20 13:43:00,80.0,65.0,-100.00,ENE,72,4.0,-999.0,60,0.00,,,-99.99,587.400024,,2013-01-20 18:43:00,
2013-01-20 13:53:00,80.0,65.0,-100.00,ENE,72,4.0,-999.0,60,0.00,,,-99.99,587.400024,,2013-01-20 18:53:00,
2013-01-20 14:02:00,80.0,65.0,-100.00,East,96,3.0,-999.0,59,0.00,,,-99.99,576.900024,,2013-01-20 19:02:00,
2013-01-20 14:12:00,81.0,65.0,-100.00,North,9,3.0,-999.0,59,0.00,,,-99.99,765.000000,,2013-01-20 19:12:00,
2013-01-20 14:22:00,81.0,65.0,-100.00,North,9,3.0,-999.0,59,0.00,,,-99.99,765.000000,,2013-01-20 19:22:00,
2013-01-20 14:33:00,81.0,64.0,-100.00,NE,36,4.0,-999.0,57,0.00,,,-99.99,616.000000,,2013-01-20 19:33:00,
2013-01-20 14:43:00,80.0,64.0,-100.00,ENE,63,4.0,-999.0,58,0.00,,,-99.99,366.799988,,2013-01-20 19:43:00,
2013-01-20 14:53:00,80.0,64.0,-100.00,ENE,63,4.0,-999.0,58,0.00,,,-99.99,366.799988,,2013-01-20 19:53:00,
2013-01-20 15:03:00,80.0,65.0,-100.00,NE,41,4.0,-999.0,61,0.00,,,-99.99,257.700012,,2013-01-20 20:03:00,
2013-01-20 15:12:00,78.0,67.0,-100.00,ESE,105,5.0,-999.0,69,0.00,,,-99.99,189.100006,,2013-01-20 20:12:00,
2013-01-20 15:23:00,78.0,67.0,-100.00,ESE,105,5.0,-999.0,69,0.00,,,-99.99,189.100006,,2013-01-20 20:23:00,
2013-01-20 15:33:00,78.0,67.0,-100.00,ESE,116,6.0,-999.0,70,0.00,,,-99.99,202.300003,,2013-01-20 20:33:00,
2013-01-20 15:42:00,77.0,68.0,-100.00,East,98,7.0,-999.0,72,0.00,,,-99.99,303.299988,,2013-01-20 20:42:00,
2013-01-20 15:53:00,77.0,68.0,-100.00,East,98,7.0,-999.0,72,0.00,,,-99.99,303.299988,,2013-01-20 20:53:00,
2013-01-20 16:03:00,77.0,68.0,-100.00,East,96,7.0,-999.0,73,0.00,,,-99.99,166.100006,,2013-01-20 21:03:00,
2013-01-20 16:13:00,77.0,68.0,-100.00,East,100,7.0,-999.0,74,0.00,,,-99.99,163.000000,,2013-01-20 21:13:00,
2013-01-20 16:23:00,77.0,68.0,-100.00,East,100,7.0,-999.0,74,0.00,,,-99.99,163.000000,,2013-01-20 21:23:00,
2013-01-20 16:33:00,77.0,68.0,-100.00,East,101,7.0,-999.0,74,0.00,,,-99.99,226.600006,,2013-01-20 21:33:00,
2013-01-20 16:43:00,77.0,68.0,-100.00,ESE,105,6.0,-999.0,74,0.00,,,-99.99,265.700012,,2013-01-20 21:43:00,
2013-01-20 16:53:00,77.0,68.0,-100.00,ESE,105,6.0,-999.0,74,0.00,,,-99.99,265.700012,,2013-01-20 21:53:00,
2013-01-20 17:03:00,77.0,68.0,-100.00,East,101,7.0,-999.0,74,0.00,,,-99.99,193.000000,,2013-01-20 22:03:00,
2013-01-20 17:13:00,76.0,68.0,-100.00,East,96,7.0,-999.0,76,0.00,,,-99.99,71.400002,,2013-01-20 22:13:00,
2013-01-20 17:23:00,76.0,68.0,-100.00,East,96,7.0,-999.0,76,0.00,,,-99.99,71.400002,,2013-01-20 22:23:00,
2013-01-20 17:33:00,76.0,68.0,-100.00,East,88,7.0,-999.0,76,0.00,,,-99.99,56.299999,,2013-01-20 22:33:00,
2013-01-20 17:43:00,75.0,68.0,-100.00,East,85,8.0,-999.0,77,0.00,,,-99.99,26.600000,,2013-01-20 22:43:00,
2013-01-20 17:53:00,75.0,68.0,-100.00,East,85,8.0,-999.0,77,0.00,,,-99.99,26.600000,,2013-01-20 22:53:00,
2013-01-20 18:03:00,75.0,68.0,-100.00,East,91,8.0,-999.0,78,0.00,,,-99.99,7.600000,,2013-01-20 23:03:00,
2013-01-20 18:13:00,74.0,68.0,-100.00,East,85,7.0,-999.0,80,0.00,,,-99.99,2.000000,,2013-01-20 23:13:00,
2013-01-20 18:23:00,74.0,68.0,-100.00,East,85,7.0,-999.0,80,0.00,,,-99.99,2.000000,,2013-01-20 23:23:00,
2013-01-20 18:33:00,74.0,68.0,-100.00,East,86,7.0,-999.0,80,0.00,,,-99.99,0.100000,,2013-01-20 23:33:00,
2013-01-20 18:43:00,74.0,68.0,-100.00,East,83,5.0,-999.0,80,0.00,,,-99.99,0.000000,,2013-01-20 23:43:00,
2013-01-20 18:53:00,74.0,68.0,-100.00,East,83,5.0,-999.0,80,0.00,,,-99.99,0.000000,,2013-01-20 23:53:00,
2013-01-20 19:03:00,74.0,68.0,-100.00,East,99,5.0,-999.0,81,0.00,,,-99.99,0.000000,,2013-01-21 00:03:00,
2013-01-20 19:13:00,74.0,68.0,-100.00,East,92,3.0,-999.0,81,0.00,,,-99.99,0.000000,,2013-01-21 00:13:00,
2013-01-20 19:23:00,74.0,68.0,-100.00,East,92,3.0,-999.0,81,0.00,,,-99.99,0.000000,,2013-01-21 00:23:00,
2013-01-20 19:33:00,74.0,68.0,-100.00,East,86,4.0,-999.0,81,0.00,,,-99.99,0.000000,,2013-01-21 00:33:00,
2013-01-20 19:43:00,73.0,67.0,-100.00,ENE,57,2.0,-999.0,82,0.00,,,-99.99,0.000000,,2013-01-21 00:43:00,
2013-01-20 19:54:00,73.0,67.0,-100.00,ENE,57,2.0,-999.0,82,0.00,,,-99.99,0.000000,,2013-01-21 00:54:00,
2013-01-20 20:03:00,73.0,67.0,-100.00,NE,44,1.0,-999.0,82,0.00,,,-99.99,0.000000,,2013-01-21 01:03:00,
2013-01-20 20:13:00,73.0,68.0,-100.00,ESE,107,1.0,-999.0,83,0.00,,,-99.99,0.000000,,2013-01-21 01:13:00,
2013-01-20 20:23:00,73.0,68.0,-100.00,ESE,107,1.0,-999.0,83,0.00,,,-99.99,0.000000,,2013-01-21 01:23:00,
2013-01-20 20:33:00,72.0,67.0,-100.00,SE,126,1.0,-999.0,83,0.00,,,-99.99,0.000000,,2013-01-21 01:33:00,
2013-01-20 20:43:00,72.0,67.0,-100.00,SSE,148,2.0,-999.0,84,0.00,,,-99.99,0.000000,,2013-01-21 01:43:00,
2013-01-20 20:53:00,72.0,67.0,-100.00,SSE,148,2.0,-999.0,84,0.00,,,-99.99,0.000000,,2013-01-21 01:53:00,
2013-01-20 21:03:00,72.0,68.0,-100.00,ENE,67,1.0,-999.0,84,0.00,,,-99.99,0.000000,,2013-01-21 02:03:00,
2013-01-20 21:13:00,72.0,68.0,-100.00,West,275,1.0,-999.0,85,0.00,,,-99.99,0.000000,,2013-01-21 02:13:00,
2013-01-20 21:23:00,72.0,68.0,-100.00,West,275,1.0,-999.0,85,0.00,,,-99.99,0.000000,,2013-01-21 02:23:00,
2013-01-20 21:33:00,72.0,68.0,-100.00,West,275,2.0,-999.0,86,0.00,,,-99.99,0.000000,,2013-01-21 02:33:00,
2013-01-20 21:43:00,72.0,68.0,-100.00,NNW,329,2.0,-999.0,86,0.00,,,-99.99,0.000000,,2013-01-21 02:43:00,
2013-01-20 21:53:00,72.0,68.0,-100.00,NNW,329,2.0,-999.0,86,0.00,,,-99.99,0.000000,,2013-01-21 02:53:00,
2013-01-20 22:03:00,72.0,68.0,-100.00,NNW,347,2.0,-999.0,87,0.00,,,-99.99,0.000000,,2013-01-21 03:03:00,
2013-01-20 22:13:00,71.0,67.0,-100.00,NNE,12,3.0,-999.0,87,0.00,,,-99.99,0.000000,,2013-01-21 03:13:00,
2013-01-20 22:23:00,71.0,67.0,-100.00,NNE,12,3.0,-999.0,87,0.00,,,-99.99,0.000000,,2013-01-21 03:23:00,
2013-01-20 22:33:00,71.0,67.0,-100.00,NNE,17,3.0,-999.0,87,0.00,,,-99.99,0.000000,,2013-01-21 03:33:00,
2013-01-20 22:43:00,70.0,67.0,-100.00,NNE,31,3.0,-999.0,88,0.00,,,-99.99,0.000000,,2013-01-21 03:43:00,
2013-01-20 22:53:00,70.0,67.0,-100.00,NNE,31,3.0,-999.0,88,0.00,,,-99.99,0.000000,,2013-01-21 03:53:00,
2013-01-20 23:03:00,70.0,67.0,-100.00,NNE,28,2.0,-999.0,89,0.00,,,-99.99,0.000000,,2013-01-21 04:03:00,
2013-01-20 23:12:00,70.0,67.0,-100.00,NNE,16,2.0,-999.0,89,0.00,,,-99.99,0.000000,,2013-01-21 04:12:00,
2013-01-20 23:23:00,70.0,67.0,-100.00,NNE,16,2.0,-999.0,89,0.00,,,-99.99,0.000000,,2013-01-21 04:23:00,
2013-01-20 23:33:00,70.0,67.0,-100.00,NNE,26,2.0,-999.0,90,0.00,,,-99.99,0.000000,,2013-01-21 04:33:00,
2013-01-20 23:43:00,69.0,66.0,-100.00,NNE,23,2.0,-999.0,90,0.00,,,-99.99,0.000000,,2013-01-21 04:43:00,
2013-01-20 23:53:00,69.0,66.0,-100.00,NNE,23,2.0,-999.0,90,0.00,,,-99.99,0.000000,,2013-01-21 04:53:00,